EST,Max TemperatureF,Mean TemperatureF,Min TemperatureF,Max Dew PointF,MeanDew PointF,Min DewpointF,Max Humidity, Mean Humidity, Min Humidity, Max Sea Level PressureIn, Mean Sea Level PressureIn, Min Sea Level PressureIn, Max VisibilityMiles, Mean VisibilityMiles, Min VisibilityMiles, Max Wind SpeedMPH, Mean Wind SpeedMPH, Max Gust SpeedMPH,PrecipitationIn, CloudCover, Events, WindDirDegrees
2013-2-1,35,28,21,19,-3,-44,80,35,4,30.39,30.11,29.80,10,9,2,16,5,28,0.00,3,Snow,322
2013-2-2,37,28,19,36,22,12,100,77,41,30.39,30.22,30.01,10,10,3,14,3,20,0.00,2,Snow,195
2013-2-3,41,34,28,37,32,21,100,89,49,30.00,29.91,29.84,10,8,1,12,1,,0.00,7,Snow,281
2013-2-4,41,31,21,25,20,16,93,57,42,30.12,30.00,29.90,10,10,10,12,4,17,0.00,2,,202
2013-2-5,50,40,30,34,30,25,100,72,50,29.94,29.89,29.84,10,10,10,6,1,,0.00,3,,12
2013-2-6,53,40,28,37,21,-35,100,70,4,30.35,30.16,29.94,10,10,5,10,2,,0.00,3,,9
2013-2-7,44,34,24,32,28,25,100,75,46,30.44,30.34,30.19,10,9,5,5,1,,0.00,5,,87
2013-2-8,46,40,35,41,35,25,100,82,49,30.18,29.93,29.78,10,8,1,17,6,28,0.17,7,Rain-Snow,342
2013-2-9,46,35,24,25,19,14,80,49,27,30.38,30.21,29.97,10,10,10,21,12,30,0.00,1,,341
2013-2-10,48,34,19,28,20,16,100,61,30,30.50,30.38,30.24,10,10,10,9,2,16,0.00,0,Rain,180
2013-2-11,59,48,37,54,43,25,100,82,31,30.24,29.93,29.74,10,9,2,15,6,22,0.07,4,Rain,200
2013-2-12,64,50,35,32,-6,-40,81,22,4,30.00,29.93,29.83,10,10,10,13,5,25,0.00,0,,223
2013-2-13,46,40,35,43,26,-44,100,74,4,29.94,29.80,29.67,10,8,2,7,2,,0.05,4,Rain,358
2013-2-14,53,40,26,37,32,27,100,80,38,30.03,29.96,29.80,10,7,2,8,0,,0.00,1,,181
2013-2-15,64,45,26,43,35,27,100,77,34,30.05,29.99,29.89,10,10,7,17,3,23,0.02,3,Rain,242
2013-2-16,42,38,33,39,31,18,100,75,48,30.01,29.93,29.87,10,8,3,15,4,26,0.00,3,Rain,347
2013-2-17,35,30,26,18,11,3,69,45,30,30.22,30.02,29.88,10,10,10,22,9,31,0.00,2,,302
2013-2-18,48,32,15,28,14,9,87,52,22,30.39,30.28,30.16,10,10,10,10,2,16,0.00,0,,205
2013-2-19,46,42,37,45,32,19,100,70,39,30.15,29.92,29.74,10,10,2,17,10,24,0.05,3,Rain,207
2013-2-20,46,37,26,21,16,12,69,43,25,30.17,30.01,29.87,10,10,10,18,7,25,0.00,1,,324
2013-2-21,44,34,24,19,16,12,64,52,34,30.33,30.22,30.13,10,10,10,12,6,20,0.00,0,,346
2013-2-22,37,34,30,34,26,19,93,72,56,30.38,30.30,30.21,10,10,4,7,2,,0.00,6,Rain,134
2013-2-23,48,42,35,46,40,34,100,98,93,30.21,29.99,29.83,10,5,1,8,1,,0.00,8,,27
2013-2-24,60,48,35,45,1,-44,100,44,4,30.14,29.92,29.81,10,7,0,21,5,31,0.00,3,Fog,328
2013-2-25,48,36,23,25,-29,-51,93,17,4,30.23,30.19,30.14,10,10,10,10,2,,0.00,0,,350
2013-2-26,46,36,26,46,33,-11,100,91,10,30.22,29.99,29.62,10,7,2,9,2,16,0.88,5,Rain,23
2013-2-27,62,50,39,48,40,-31,100,75,4,29.71,29.64,29.56,10,9,4,14,6,17,0.00,6,,278
2013-2-28,50,46,42,41,32,28,87,58,43,29.76,29.69,29.64,10,10,10,13,4,17,0.00,5,,282